TimeEDT,TemperatureF,Dew PointF,Humidity,Sea Level PressureIn,VisibilityMPH,Wind Direction,Wind SpeedMPH,Gust SpeedMPH,PrecipitationIn,Events,Conditions,WindDirDegrees,DateUTC
12:53 AM,39.9,28.0,63,29.80,10.0,WNW,11.5,-,N/A,,Overcast,300,2012-11-02 04:53:00
1:36 AM,39.2,28.4,65,29.79,10.0,NW,15.0,-,N/A,,Overcast,320,2012-11-02 05:36:00
1:43 AM,39.2,28.4,65,29.79,10.0,NW,13.8,20.7,N/A,,Overcast,320,2012-11-02 05:43:00
1:53 AM,39.0,28.9,67,29.81,10.0,NW,10.4,-,N/A,,Overcast,310,2012-11-02 05:53:00
2:53 AM,39.0,28.9,67,29.81,10.0,NW,10.4,-,N/A,,Overcast,310,2012-11-02 06:53:00
3:53 AM,39.9,28.0,63,29.82,10.0,NW,13.8,20.7,N/A,,Overcast,320,2012-11-02 07:53:00
4:53 AM,39.0,30.0,70,29.83,10.0,WNW,8.1,-,N/A,,Overcast,290,2012-11-02 08:53:00
5:53 AM,39.0,30.0,70,29.84,10.0,WNW,8.1,-,N/A,,Overcast,300,2012-11-02 09:53:00
6:07 AM,39.2,30.2,70,29.83,10.0,NW,8.1,-,N/A,,Overcast,310,2012-11-02 10:07:00
6:53 AM,37.9,30.9,76,29.86,9.0,NW,17.3,-,N/A,,Overcast,320,2012-11-02 10:53:00
7:49 AM,37.4,30.2,75,29.86,9.0,NNW,11.5,-,0.00,,Overcast,330,2012-11-02 11:49:00
7:53 AM,37.0,28.9,73,29.88,10.0,NW,12.7,-,0.00,,Overcast,320,2012-11-02 11:53:00
8:53 AM,35.1,30.0,82,29.92,10.0,NW,10.4,-,N/A,,Scattered Clouds,320,2012-11-02 12:53:00
9:53 AM,37.9,28.9,70,29.94,10.0,NW,10.4,-,N/A,,Scattered Clouds,320,2012-11-02 13:53:00
10:45 AM,37.4,26.6,65,29.94,10.0,North,11.5,20.7,N/A,,Mostly Cloudy,350,2012-11-02 14:45:00
10:53 AM,37.9,26.1,62,29.96,10.0,NNW,16.1,23.0,N/A,,Mostly Cloudy,340,2012-11-02 14:53:00
11:53 AM,39.0,25.0,57,29.97,10.0,North,15.0,26.5,N/A,,Mostly Cloudy,360,2012-11-02 15:53:00
12:53 PM,41.0,26.1,55,29.98,10.0,NNW,17.3,20.7,N/A,,Overcast,330,2012-11-02 16:53:00
1:53 PM,41.0,27.0,57,29.98,10.0,NNW,11.5,17.3,N/A,,Overcast,330,2012-11-02 17:53:00
2:53 PM,42.1,28.0,58,29.98,10.0,NNW,17.3,21.9,N/A,,Overcast,330,2012-11-02 18:53:00
3:53 PM,41.0,28.0,60,30.00,10.0,NNW,12.7,-,N/A,,Overcast,330,2012-11-02 19:53:00
4:53 PM,41.0,28.0,60,30.01,10.0,NNW,11.5,-,N/A,,Overcast,330,2012-11-02 20:53:00
5:53 PM,41.0,28.9,62,30.02,10.0,NE,8.1,-,N/A,,Overcast,40,2012-11-02 21:53:00
6:53 PM,39.9,28.9,65,30.04,10.0,North,4.6,-,N/A,,Overcast,350,2012-11-02 22:53:00
7:53 PM,39.9,28.9,65,30.06,10.0,NNW,8.1,-,N/A,,Overcast,330,2012-11-02 23:53:00
8:53 PM,39.9,28.9,65,30.07,10.0,NNW,11.5,-,N/A,,Overcast,330,2012-11-03 00:53:00
9:53 PM,39.0,28.0,65,30.08,10.0,NNW,11.5,-,N/A,,Overcast,330,2012-11-03 01:53:00
10:53 PM,37.9,28.0,68,30.09,10.0,NNW,12.7,-,N/A,,Overcast,330,2012-11-03 02:53:00
11:53 PM,35.1,28.0,76,30.10,10.0,NNW,8.1,-,N/A,,Scattered Clouds,330,2012-11-03 03:53:00